Regional Weather Roundup
Issued by NWS

Home | Current Version | Previous Version | Graphics & Text | Print | Product List | Glossary On
Versions: 1 2 3 4 5 6 7 8 9 10 11 12 13 14 15 16 17 18 19 20 21 22 23 24 25 26 27 28 29 30 31 32 33 34 35 36 37 38 39 40 41 42 43 44 45 46 47 48 49 50
000
ASUS43 KDTX 011810
RWRMI
MICHIGAN HOURLY REGIONAL WEATHER ROUNDUP
NATIONAL WEATHER SERVICE DETROIT/PONTIAC MI
200 PM EDT WED OCT 01 2014

NOTE: "FAIR" INDICATES FEW OR NO CLOUDS BELOW 12,000 FEET WITH NO
SIGNIFICANT WEATHER AND/OR OBSTRUCTION TO VISIBILITY.

MIZ047>049-052>055-059>063-066>070-074>076-081>083-011900-
SOUTHEAST LOWER MICHIGAN

CITY           SKY/WX    TMP DP  RH WIND       PRES   REMARKS
ADRIAN         CLOUDY    64  48  56 S8        30.07F
6HR MIN TEMP:  47; 6HR MAX TEMP:  66;

ALMA           CLOUDY    60  51  74 SE6       30.07F
ANN ARBOR      CLOUDY    65  48  54 S8        30.06S
BAD AXE        CLOUDY    64  60  87 SE6       30.07F FOG
6HR MIN TEMP:  56; 6HR MAX TEMP:  64;

CARO           CLOUDY    64  57  79 SW6       30.06F
DETROIT CITY   CLOUDY    66  52  60 SE5       30.07S
DETROIT        MOSUNNY   67  53  61 VRB6      30.06F
6HR MIN TEMP:  53; 6HR MAX TEMP:  67;

FLINT          PTSUNNY   66  51  58 S10G16    30.06F
6HR MIN TEMP:  54; 6HR MAX TEMP:  67;

GROSSE ILE     PTSUNNY   64  52  63 S5        30.05S
HILLSDALE      CLOUDY    63  49  59 S5        30.06F
6HR MIN TEMP:  52; 6HR MAX TEMP:  63;

HOWELL         PTSUNNY   62  50  65 SE5       30.06F

CITY           SKY/WX    TMP DP  RH WIND       PRES   REMARKS
JACKSON        CLOUDY    64  49  57 MISG      30.05F
6HR MIN TEMP:  51; 6HR MAX TEMP:  64;

LAMBERTVILLE   CLOUDY    64  52  63 W3        30.07S
LANSING        CLOUDY    60  50  69 CALM      30.07F
6HR MIN TEMP:  51; 6HR MAX TEMP:  60; 6HR PCP: TRACE;

LAPEER         CLOUDY    64  53  68 S3        30.06F
MASON          CLOUDY    61  51  69 CALM      30.06F
MONROE         PTSUNNY   66  52  59 S7        30.04F
MT. CLEMENS    PTSUNNY   67  56  69 E7        30.04S
6HR MIN TEMP:  55; 6HR MAX TEMP:  67;

PONTIAC        PTSUNNY   64  50  60 S3        30.05F
6HR MIN TEMP:  53; 6HR MAX TEMP:  65;

PORT HOPE        N/A     61  59  93 E6        30.06S
6HR MIN TEMP:  59; 6HR MAX TEMP:  61;

PORT HURON     CLOUDY    63  57  82 CALM      30.06F HAZE
TRI CITIES     CLOUDY    63  55  75 SE6       30.07F
6HR MIN TEMP:  54; 6HR MAX TEMP:  64; 6HR PCP:  0.01;

TROY           PTSUNNY   67  51  56 S3        30.07F
SAGINAW HB     MOSUNNY   63  55  77 S5        30.06F
$$
MIZ043>046-050>051-056>058-064>065-071>073-077>080-011900-
SOUTHWEST LOWER MICHIGAN

CITY           SKY/WX    TMP DP  RH WIND       PRES   REMARKS
BATTLE CREEK   CLOUDY    61  49  64 S9        30.05F
6HR MIN TEMP:  52; 6HR MAX TEMP:  61;

BENTON HARBOR  MOSUNNY   62  49  62 SE13G18   30.02F
6HR MIN TEMP:  52; 6HR MAX TEMP:  63;

BIG RAPIDS     CLOUDY    59  57  93 S9        30.04F
6HR MIN TEMP:  51; 6HR MAX TEMP:  59;

COLDWATER      CLOUDY    61  49  64 S5        30.05F
6HR MIN TEMP:  53; 6HR MAX TEMP:  61;

FREMONT        CLOUDY    59  50  71 SE8       30.03F
GRAND RAPIDS   CLOUDY    60  51  72 SE8       30.04F
6HR MIN TEMP:  53; 6HR MAX TEMP:  60;

IONIA          CLOUDY    59  50  71 SE10      30.05F
KALAMAZOO      PTSUNNY   61  48  62 VRB6      30.05F
6HR MIN TEMP:  52; 6HR MAX TEMP:  61;

LUDINGTON      CLOUDY    57  52  85 W7        30.03F
MARSHALL       PTSUNNY   62  48  60 S6        30.05F
MOUNT PLEASANT CLOUDY    60  54  82 S8        30.06S
6HR MIN TEMP:  51; 6HR MAX TEMP:  60;

MUSKEGON       CLOUDY    58  49  72 SE7       30.04F
6HR MIN TEMP:  53; 6HR MAX TEMP:  58;

SOUTH HAVEN    CLOUDY    62  51  67 S6        30.03F
$$
MIZ016>042-011900-
NORTHERN LOWER MICHIGAN

CITY           SKY/WX    TMP DP  RH WIND       PRES   REMARKS
ALPENA         CLOUDY    57  57 100 SE6       30.08F FOG
6HR MIN TEMP:  53; 6HR MAX TEMP:  57;

BEAVER ISLAND  CLOUDY    57  54  88 SE6       30.06S
6HR MIN TEMP:  55; 6HR MAX TEMP:  58;

BELLAIRE       CLOUDY    62  54  73 SE7       30.05F
6HR MIN TEMP:  52; 6HR MAX TEMP:  62;

CADILLAC       CLOUDY    60  54  78 SE10      30.04F
CHARLEVOIX     CLOUDY    60  55  84 E8        30.08F
6HR MIN TEMP:  53; 6HR MAX TEMP:  60;

FRANKFORT      CLOUDY    59  52  77 S5        30.02F
GAYLORD        CLOUDY    55  53  93 VRB5      30.06F
6HR MIN TEMP:  50; 6HR MAX TEMP:  55;

GRAYLING       CLOUDY    60  55  82 E5        30.06F
HARBOR SPRINGS CLOUDY    58  54  85 E3        30.07F
HOUGHTON LAKE  CLOUDY    59  54  83 SE8       30.06F
6HR MIN TEMP:  51; 6HR MAX TEMP:  60;

OSCODA         CLOUDY    59  58  97 CALM      30.07S FOG
PELLSTON       CLOUDY    57  54  89 SE8       30.07F
6HR MIN TEMP:  52; 6HR MAX TEMP:  57;

ROGERS CITY    CLOUDY    55  55 100 E6        30.10S
TRAVERSE CITY  CLOUDY    63  53  70 E7        30.02F
6HR MIN TEMP:  52; 6HR MAX TEMP:  63;

$$
MIZ007>008-015-011900-
EASTERN UPPER MICHIGAN

CITY           SKY/WX    TMP DP  RH WIND       PRES   REMARKS
MACKINAC ISLAN CLOUDY    55  54  99 E10       30.07F FOG
6HR MIN TEMP:  53; 6HR MAX TEMP:  56;

NEWBERRY       CLOUDY    55  52  92 SE9G16    30.04F
S. S. MARIE    CLOUDY    54  51  90 E7        30.08F
6HR MIN TEMP:  51; 6HR MAX TEMP:  54;

$$
MIZ004>006-011>014-085-011900-
CENTRAL UPPER MICHIGAN

CITY           SKY/WX    TMP DP  RH WIND       PRES   REMARKS
MANISTIQUE     CLOUDY    57  53  85 S8        30.03F
SAWYER-GWINN   CLOUDY    52  48  87 S14G22    29.98F
$$
MIZ001>003-009>011-084-011900-
WESTERN UPPER MICHIGAN

CITY           SKY/WX    TMP DP  RH WIND       PRES   REMARKS
IRON MOUNTAIN  CLOUDY    55  51  86 SE8       29.96F
6HR MIN TEMP:  48; 6HR MAX TEMP:  55;

HOUGHTON       PTSUNNY   58  47  66 S14G20    29.90F
6HR MIN TEMP:  49; 6HR MAX TEMP:  58;

$$

ABBREVIATIONS USED IN REMARKS
   TC - TEMPERATURE IN CELSIUS
  WCI - WIND CHILL INDEX
   HX - HEAT INDEX
  VSB - VISIBILITY




USA.gov is the U.S. government's official web portal to all federal, state and local government web resources and services.